Content
SEND FEEDBACK

Daily
Averages
Monthly
Summary
Canada

VANCOUVER, BRITISH COLUMBIA


Home > North America > Canada > British Columbia
Elevation: 7 feet     Latitude: 49 11N     Longitude: 123 10W

WEATHER
 
SELECT A DAY
Number of Records: 254,093;   Date Range: 5/15/97 - 11/25/14
 
SHARE

PRINT THIS DATA

[ ← Previous Day ]
WEATHER ALMANAC - SEPTEMBER 18, 2013
[ Next Day → ]
[ °C ]   °F
Weather ElementAverageHighLow
Temperature58.6 °F66.2 °F (3:35 pm)51.8 °F (7:15 am)
Dewpoint51.5 °F53.6 °F (9:15 am)50 °F (6:55 am)
Humidity78 %94 % (6:15 am)56 % (3:55 pm)
Barometer30.01 in30.05 in (12:35 pm)29.90 in (12:35 am)
Wind Speed3.9 mph10.4 mph (4:15 pm)
Weather ElementAverage
Visibility10 mi
Wind DirectionESE (114.5 °)

Weather ElementTotal
Precipitation---
Heating Degree Days6 (Base 65)
Growing Degree Days9 (Base 50)
Averaged from 71 records on September 18, 2013
WEATHER CONDITIONS BREAKOUT
WIND DIRECTION BREAKOUT
WEATHER BY HOUR - SEPTEMBER 18, 2013
[ °C ]   °F
Local TimeTemperatureDewpointHumidityBarometerVisibilityWind DirectionWind SpeedGust SpeedPrecipitationEventsConditions
12:35 AM55.4 °F51.8 °F88 %29.90 in10.0 miSouth (190°)5.8 mphMostly Cloudy
12:55 AM55.4 °F51.8 °F88 %29.90 in10.0 miSouth (190°)5.8 mphMostly Cloudy
1:15 AM55.4 °F51.8 °F88 %29.91 in10.0 miSouth (190°)5.8 mphMostly Cloudy
1:35 AM55.4 °F51.8 °F88 %29.92 in10.0 miCalmMostly Cloudy
1:55 AM55.4 °F51.8 °F88 %29.92 in10.0 miSouth (190°)3.5 mphMostly Cloudy
2:15 AM55.4 °F51.8 °F88 %29.93 in10.0 miCalmScattered Clouds
2:35 AM55.4 °F51.8 °F88 %29.93 in10.0 miCalmMostly Cloudy
2:55 AM55.4 °F51.8 °F88 %29.93 in10.0 miCalmMostly Cloudy
3:15 AM55.4 °F51.8 °F88 %29.93 in10.0 miNorthScattered Clouds
3:35 AM55.4 °F51.8 °F88 %29.94 in10.0 miCalmScattered Clouds
3:55 AM55.4 °F51.8 °F88 %29.94 in10.0 miCalmScattered Clouds
4:15 AM55.4 °F51.8 °F88 %29.95 in10.0 miCalmPartly Cloudy
4:35 AM55.4 °F51.8 °F88 %29.95 in10.0 miSouth (190°)3.5 mphPartly Cloudy
4:55 AM55.4 °F51.8 °F88 %29.96 in10.0 miSouth (190°)4.6 mphPartly Cloudy
5:15 AM55.4 °F51.8 °F88 %29.96 in10.0 miCalmPartly Cloudy
5:35 AM55.4 °F51.8 °F88 %29.96 in10.0 miCalmClear
5:55 AM55.4 °F51.8 °F88 %29.96 in10.0 miSouth (180°)3.5 mphPartly Cloudy
6:15 AM53.6 °F51.8 °F94 %29.96 in10.0 miCalmClear
6:35 AM53.6 °F51.8 °F94 %29.97 in10.0 miSouth (170°)3.5 mphPartly Cloudy
6:55 AM53.6 °F50.0 °F88 %29.98 in10.0 miCalmClear
7:15 AM51.8 °F50.0 °F94 %29.98 in10.0 miCalmClear
7:35 AM51.8 °F50.0 °F94 %29.99 in10.0 miCalmClear
7:55 AM53.6 °F50.0 °F88 %29.99 in10.0 miCalmClear
8:15 AM53.6 °F50.0 °F88 %30.00 in10.0 miCalmClear
8:35 AM55.4 °F51.8 °F88 %30.00 in10.0 miCalmClear
8:55 AM57.2 °F51.8 °F82 %30.01 in10.0 miSouth (190°)5.8 mphScattered Clouds
9:15 AM57.2 °F53.6 °F88 %30.01 in10.0 miCalmMostly Cloudy
9:35 AM57.2 °F53.6 °F88 %30.02 in10.0 miSouth (190°)4.6 mphMostly Cloudy
9:55 AM57.2 °F53.6 °F88 %30.02 in10.0 miCalmMostly Cloudy
10:15 AM59.0 °F53.6 °F82 %30.02 in10.0 miCalmScattered Clouds
10:35 AM59.0 °F53.6 °F82 %30.02 in10.0 miSouth (190°)4.6 mphClear
10:55 AM59.0 °F53.6 °F82 %30.03 in10.0 miCalmPartly Cloudy
11:15 AM59.0 °F53.6 °F82 %30.03 in10.0 miSW (220°)4.6 mphClear
11:35 AM60.8 °F53.6 °F77 %30.03 in10.0 miSSW (200°)3.5 mphClear
11:55 AM62.6 °F51.8 °F68 %30.04 in10.0 miNorth (10°)3.5 mphClear
12:15 PM62.6 °F51.8 °F68 %30.04 in10.0 miSW (220°)5.8 mphClear
12:35 PM62.6 °F53.6 °F72 %30.05 in10.0 miCalmClear
12:55 PM62.6 °F53.6 °F72 %30.04 in10.0 miSouth (180°)5.8 mphClear
1:15 PM62.6 °F53.6 °F72 %30.05 in10.0 miSSW (200°)5.8 mphPartly Cloudy
1:35 PM62.6 °F53.6 °F72 %30.05 in10.0 miSW (230°)4.6 mphScattered Clouds
1:55 PM64.4 °F51.8 °F64 %30.04 in10.0 miSSW (210°)6.9 mphPartly Cloudy
2:15 PM64.4 °F51.8 °F64 %30.04 in10.0 miSSW (200°)6.9 mphClear
2:35 PM64.4 °F50.0 °F59 %30.04 in10.0 miSSW (200°)9.2 mphClear
2:55 PM64.4 °F53.6 °F68 %30.04 in10.0 miSouth (190°)9.2 mphClear
3:15 PM64.4 °F51.8 °F64 %30.04 in10.0 miSSW (200°)9.2 mphClear
3:35 PM66.2 °F51.8 °F60 %30.04 in10.0 miSouth (170°)4.6 mphClear
3:55 PM66.2 °F50.0 °F56 %30.04 in10.0 miSSW (200°)9.2 mphClear
4:15 PM66.2 °F51.8 °F60 %30.04 in10.0 miSSW (210°)10.4 mphClear
4:35 PM66.2 °F50.0 °F56 %30.04 in10.0 miSSW (210°)9.2 mphClear
4:55 PM66.2 °F50.0 °F56 %30.03 in10.0 miSSW (200°)9.2 mphClear
5:15 PM64.4 °F51.8 °F64 %30.03 in10.0 miSSW (200°)9.2 mphClear
5:35 PM62.6 °F51.8 °F68 %30.04 in10.0 miSouth (190°)10.4 mphClear
5:55 PM62.6 °F50.0 °F63 %30.04 in10.0 miSouth (190°)8.1 mphClear
6:15 PM62.6 °F50.0 °F63 %30.04 in10.0 miSouth (180°)5.8 mphClear
6:35 PM60.8 °F50.0 °F68 %30.04 in10.0 miSouth (190°)9.2 mphClear
6:55 PM60.8 °F50.0 °F68 %30.03 in10.0 miSouth (190°)8.1 mphClear
7:15 PM60.8 °F50.0 °F68 %30.04 in10.0 miSouth (190°)6.9 mphClear
7:35 PM59.0 °F50.0 °F72 %30.03 in10.0 miSouth (190°)9.2 mphClear
7:55 PM59.0 °F50.0 °F72 %30.04 in10.0 miSouth (190°)6.9 mphClear
8:15 PM59.0 °F51.8 °F77 %30.04 in10.0 miSouth (180°)3.5 mphClear
8:35 PM59.0 °F51.8 °F77 %30.04 in10.0 miSouth (190°)6.9 mphClear
8:55 PM59.0 °F50.0 °F72 %30.05 in10.0 miSouth (170°)5.8 mphClear
9:15 PM59.0 °F50.0 °F72 %30.05 in10.0 miSouth (190°)6.9 mphClear
9:35 PM59.0 °F50.0 °F72 %30.05 in10.0 miSouth (190°)4.6 mphClear
9:55 PM57.2 °F50.0 °F77 %30.05 in10.0 miSouth (190°)3.5 mphClear
10:15 PM57.2 °F50.0 °F77 %30.05 in10.0 miCalmClear
10:35 PM57.2 °F50.0 °F77 %30.05 in10.0 miCalmClear
10:55 PM55.4 °F50.0 °F82 %30.05 in10.0 miCalmClear
11:15 PM55.4 °F50.0 °F82 %30.05 in10.0 miCalmClear
11:35 PM55.4 °F50.0 °F82 %30.04 in10.0 miCalmClear
11:55 PM55.4 °F50.0 °F82 %30.04 in10.0 miCalmClear
Hourly data recorded from CZBB, located miles away from Vancouver, British Columbia







STORIES FROM OUR PARTNERS